Weather in Chernyy Ruchey

Russia / Bryansk Oblast     52°57′31″N   32°06′02″E
temp.,
°C
wind,
m/s
gust,
m/s
humid.,
%
clouds,
%
prec.,
mm/h
press.,
hPa
HPBL,
m
30 november, tue
tue3000:00+7w81396100 7.7 979856
03:00+3wsw101695100 8.3 9811029
06:00+1sw111590100 0.2 9811121
09:00−1wsw101789100 0.6 9831383
12:00−1wsw121990100 0.6 9861497
15:00−1w111786100 1.6 9891171
18:00−1w101676100 0.0 9911132
21:00−1wsw9138099 0.1 993985
1 december, wed
wed100:00−2wsw7138153 0.0 993704
03:00−3wsw598891 0.0 994589
06:00−2sw379392 0.1 993398
09:00−1sw2797100 1.0 994407
12:00−1nw587862 0.6 996628
15:00−2wnw59755 0.6 997866
18:00−4w510865 0.0 1000391
21:00−4w49915 0.0 1001309
2 december, thu
thu200:00−5sw369530 0.0 1002148
03:00−4s4889100 0.0 1002265
06:00−3s71489100 0.1 1000531
09:00−1s81595100 1.1 997629
12:00+1ssw71498100 0.5 997604
15:00+2ssw71497100 0.8 997534
18:00+2sw61497100 0.0 999530
21:00+2ssw61495100 0.0 1000417
3 december, fri
fri300:00+1sw51392100 0.0 1002310
03:000sw4997100 0.0 1003191
06:00−1ssw2498100 0.0 100362
09:000se2497100 0.1 100379
12:00+1e3699100 3.4 1001195
15:00+2s41093100 3.9 998470
18:000w3699100 2.9 1000302
21:00−1nw51094100 3.6 1003513
4 december, sat
sat400:00−1w4996100 0.0 1006369
03:00−2w4691100 0.0 1009457
06:00−2wsw358995 0.0 1010422
09:00−4ssw38935 0.0 1012213
12:00−2sw4983100 0.0 1012402
15:00−1ssw48835 0.0 1011411
18:00−3ssw35925 0.0 1011105
21:00−3ssw35925 0.0 101294